Weather History for Delta, CO

Change the Weather History Date:

Tuesday, October 8, 2013

  Actual Average (KMTJ) Record (KMTJ)
Temperature  
Mean Temperature 59 °F 53 °F  
Max Temperature 77 °F 68 °F 77 °F (1996)
Min Temperature 41 °F 38 °F 28 °F (2007)
Degree Days  
Heating Degree Days 6 12  
Month to date heating degree days 83  
Since 1 July heating degree days 210  
Cooling Degree Days 0 0  
Month to date cooling degree days 0  
Year to date cooling degree days 643  
Growing Degree Days 9 (Base 50)    
Moisture  
Dew Point 30 °F    
Average Humidity 38    
Maximum Humidity 74    
Minimum Humidity 13    
Precipitation  
Precipitation 0.00 in 0.04 in 0.03 in (2000)
Month to date precipitation 0.43  
Year to date precipitation 9.08  
Sea Level Pressure  
Sea Level Pressure 29.95 in    
Wind  
Wind Speed 7 mph (East)    
Max Wind Speed 22 mph    
Max Gust Speed 31 mph    
Visibility 10 miles    
Events      
T = Trace of Precipitation, MM = Missing Value Source: NWS Daily Summary

Daily Weather History Graph

Daily Weather History Graph

Search for Another Location

Airport:

Trip Planner

Search our weather history database for the weather conditions in past years. The results will help you decide how hot, cold, wet, or windy it might be!

Date:

Astronomy

Oct. 08, 2013 Rise Set
Actual Time 7:15 AM MDT 6:43 PM MDT
Civil Twilight 6:48 AM MDT 7:10 PM MDT
Nautical Twilight 6:17 AM MDT 7:41 PM MDT
Astronomical Twilight 5:46 AM MDT 8:11 PM MDT
Moon 11:10 AM MDT (10/8) 9:25 PM MDT (10/8)
Length of Visible Light 12h 21m
Length of Day
11h 28m
Waxing Crescent, 16% of the Moon is Illuminated
Oct 8
Waxing Crescent
Oct 11
First Quarter
Oct 18
Full
Oct 26
Last Quarter
Nov 3
New

Hourly Weather History & Observations

Time (MDT) Temp. Windchill Dew Point Humidity Pressure Visibility Wind Dir Wind Speed Gust Speed Precip Events Conditions
12:15 AM 52.0 °F - 35.1 °F 53% 30.07 in 10.0 mi ENE 6.9 mph - N/A   Clear
12:35 AM 51.8 °F - 36.1 °F 55% 30.07 in 10.0 mi Calm Calm - N/A   Clear
12:55 AM 49.6 °F - 36.7 °F 61% 30.07 in 10.0 mi Calm Calm - N/A   Clear
1:15 AM 49.5 °F - 38.1 °F 65% 30.06 in 10.0 mi North 5.8 mph - N/A   Clear
1:35 AM 52.9 °F - 35.6 °F 52% 30.06 in 10.0 mi East 5.8 mph - N/A   Clear
1:55 AM 50.0 °F - 35.6 °F 58% 30.06 in 10.0 mi ENE 5.8 mph - N/A   Clear
2:15 AM 49.1 °F - 36.3 °F 61% 30.06 in 10.0 mi East 5.8 mph - N/A   Clear
2:35 AM 47.8 °F - 35.6 °F 63% 30.06 in 10.0 mi ENE 3.5 mph - N/A   Clear
2:55 AM 46.2 °F 44.1 °F 35.8 °F 67% 30.06 in 10.0 mi NE 4.6 mph - N/A   Clear
3:15 AM 45.9 °F 42.9 °F 35.6 °F 67% 30.05 in 10.0 mi NNE 5.8 mph - N/A   Clear
3:35 AM 47.5 °F - 35.6 °F 63% 30.05 in 10.0 mi NNE 5.8 mph - N/A   Clear
3:55 AM 47.5 °F - 34.9 °F 62% 30.04 in 10.0 mi ENE 5.8 mph - N/A   Clear
4:15 AM 46.4 °F 45.2 °F 34.5 °F 63% 30.03 in 10.0 mi ENE 3.5 mph - N/A   Clear
4:35 AM 43.5 °F 38.9 °F 34.0 °F 69% 30.03 in 10.0 mi NNE 8.1 mph - N/A   Clear
4:55 AM 45.5 °F 40.8 °F 34.7 °F 66% 30.02 in 10.0 mi NNE 9.2 mph - N/A   Clear
5:15 AM 48.2 °F - 33.3 °F 56% 30.03 in 10.0 mi ENE 4.6 mph - N/A   Clear
5:35 AM 45.5 °F 43.2 °F 32.9 °F 61% 30.03 in 10.0 mi East 4.6 mph - N/A   Clear
5:55 AM 43.7 °F - 32.9 °F 66% 30.02 in 10.0 mi Calm Calm - N/A   Clear
6:15 AM 41.5 °F 38.6 °F 32.7 °F 71% 30.02 in 10.0 mi NE 4.6 mph - N/A   Clear
6:35 AM 43.0 °F 41.3 °F 32.7 °F 67% 30.02 in 10.0 mi NE 3.5 mph - N/A   Clear
6:55 AM 41.5 °F - 33.8 °F 74% 30.02 in 10.0 mi Calm Calm - N/A   Clear
7:15 AM 41.9 °F 38.2 °F 32.9 °F 70% 30.02 in 10.0 mi NE 5.8 mph - N/A   Clear
7:35 AM 43.7 °F 40.3 °F 32.4 °F 64% 30.03 in 10.0 mi NE 5.8 mph - N/A   Clear
7:55 AM 44.4 °F 40.5 °F 32.9 °F 64% 30.03 in 10.0 mi NE 6.9 mph - N/A   Clear
8:15 AM 48.4 °F - 34.7 °F 59% 30.03 in 10.0 mi NNE 8.1 mph - N/A   Clear
8:35 AM 52.3 °F - 33.8 °F 49% 30.03 in 10.0 mi NNE 9.2 mph - N/A   Clear
8:55 AM 55.0 °F - 32.4 °F 42% 30.03 in 10.0 mi ENE 6.9 mph - N/A   Clear
9:15 AM 56.5 °F - 32.0 °F 39% 30.02 in 10.0 mi ENE 8.1 mph - N/A   Clear
9:35 AM 57.7 °F - 32.5 °F 39% 30.02 in 7.0 mi ENE 6.9 mph - N/A   Clear
9:55 AM 61.2 °F - 32.0 °F 33% 30.02 in 10.0 mi East 5.8 mph - N/A   Clear
10:15 AM 63.7 °F - 32.0 °F 31% 30.02 in 10.0 mi SSE 3.5 mph - N/A   Clear
10:35 AM 65.1 °F - 32.9 °F 30% 30.01 in 10.0 mi East 3.5 mph - N/A   Clear
10:55 AM 66.9 °F - 32.4 °F 28% 30.00 in 10.0 mi Calm Calm - N/A   Clear
11:15 AM 68.9 °F - 31.3 °F 25% 29.99 in 10.0 mi ENE 5.8 mph - N/A   Clear
11:35 AM 70.9 °F - 29.8 °F 22% 29.98 in 7.0 mi SSE 4.6 mph - N/A   Clear
11:55 AM 72.0 °F - 31.1 °F 22% 29.97 in 10.0 mi South 3.5 mph - N/A   Clear
12:15 PM 73.6 °F - 29.8 °F 20% 29.96 in 10.0 mi SW 3.5 mph - N/A   Clear
12:35 PM 74.3 °F - 28.8 °F 19% 29.95 in 10.0 mi WSW 6.9 mph - N/A   Clear
12:55 PM 77.2 °F - 22.3 °F 13% 29.93 in 10.0 mi SW 19.6 mph 27.6 mph N/A   Clear
1:15 PM 76.3 °F - 21.9 °F 13% 29.92 in 10.0 mi SW 19.6 mph 31.1 mph N/A   Clear
1:35 PM 77.2 °F - 22.5 °F 13% 29.91 in 10.0 mi SW 18.4 mph 28.8 mph N/A   Clear
1:55 PM 77.5 °F - 23.0 °F 13% 29.90 in 10.0 mi SW 19.6 mph 31.1 mph N/A   Clear
2:15 PM 77.4 °F - 22.3 °F 13% 29.88 in 10.0 mi SSW 11.5 mph 25.3 mph N/A   Clear
2:35 PM 77.7 °F - 22.5 °F 13% 29.87 in 10.0 mi SW 12.7 mph 26.5 mph N/A   Clear
2:55 PM 77.5 °F - 22.6 °F 13% 29.87 in 10.0 mi SW 21.9 mph 28.8 mph N/A   Clear
3:15 PM 77.9 °F - 22.3 °F 13% 29.87 in 10.0 mi SW 17.3 mph 31.1 mph N/A   Clear
3:35 PM 77.2 °F - 22.5 °F 13% 29.87 in 10.0 mi SSW 12.7 mph 20.7 mph N/A   Clear
3:55 PM 76.6 °F - 22.6 °F 13% 29.87 in 10.0 mi SSW 17.3 mph 26.5 mph N/A   Clear
4:15 PM 76.5 °F - 23.0 °F 14% 29.87 in 10.0 mi SW 20.7 mph 29.9 mph N/A   Scattered Clouds
4:35 PM 76.1 °F - 22.8 °F 14% 29.86 in 10.0 mi WSW 16.1 mph 28.8 mph N/A   Clear
4:55 PM 75.6 °F - 23.0 °F 14% 29.86 in 7.0 mi SW 18.4 mph 26.5 mph N/A   Clear
5:15 PM 74.3 °F - 25.3 °F 16% 29.86 in 10.0 mi SW 18.4 mph 28.8 mph N/A   Clear
5:35 PM 74.3 °F - 25.5 °F 16% 29.85 in 10.0 mi SW 12.7 mph 23.0 mph N/A   Clear
5:55 PM 73.8 °F - 26.1 °F 17% 29.85 in 10.0 mi SW 16.1 mph 19.6 mph N/A   Clear
6:15 PM 72.9 °F - 25.5 °F 17% 29.85 in 7.0 mi SW 13.8 mph 24.2 mph N/A   Clear
6:35 PM 70.7 °F - 26.1 °F 19% 29.85 in 7.0 mi SW 12.7 mph 20.7 mph N/A   Clear
6:55 PM 69.4 °F - 26.2 °F 20% 29.85 in 7.0 mi WSW 10.4 mph - N/A   Clear
7:15 PM 68.9 °F - 26.6 °F 20% 29.85 in 10.0 mi WSW 6.9 mph - N/A   Clear
7:35 PM 66.7 °F - 27.3 °F 23% 29.85 in 10.0 mi Calm Calm - N/A   Clear
7:55 PM 66.2 °F - 27.5 °F 23% 29.85 in 7.0 mi Calm Calm - N/A   Clear
8:15 PM 63.7 °F - 28.2 °F 26% 29.85 in 10.0 mi Calm Calm - N/A   Scattered Clouds
8:35 PM 63.0 °F - 28.8 °F 28% 29.86 in 10.0 mi West 3.5 mph - N/A   Scattered Clouds
8:55 PM 62.4 °F - 28.9 °F 28% 29.86 in 7.0 mi Calm Calm - N/A   Scattered Clouds
9:15 PM 57.4 °F - 28.2 °F 33% 29.87 in 10.0 mi ENE 8.1 mph - N/A   Clear
9:35 PM 57.0 °F - 30.2 °F 36% 29.87 in 10.0 mi NE 8.1 mph - N/A   Scattered Clouds
9:55 PM 58.1 °F - 31.3 °F 36% 29.86 in 10.0 mi NE 8.1 mph - N/A   Mostly Cloudy
10:15 PM 58.5 °F - 30.6 °F 35% 29.86 in 10.0 mi NE 5.8 mph - N/A   Overcast
10:35 PM 59.0 °F - 29.5 °F 33% 29.87 in 10.0 mi NE 5.8 mph - N/A   Overcast
10:55 PM 59.0 °F - 30.6 °F 34% 29.87 in 10.0 mi NE 8.1 mph - N/A   Mostly Cloudy
11:15 PM 58.8 °F - 30.9 °F 35% 29.87 in 10.0 mi East 4.6 mph - N/A   Overcast
11:35 PM 57.4 °F - 32.0 °F 38% 29.87 in 10.0 mi Calm Calm - N/A   Overcast
11:55 PM 55.6 °F - 32.0 °F 41% 29.86 in 10.0 mi ENE 4.6 mph - N/A   Overcast